TimeMDT,TemperatureF,Dew PointF,Humidity,Sea Level PressureIn,VisibilityMPH,Wind Direction,Wind SpeedMPH,Gust SpeedMPH,PrecipitationIn,Events,Conditions,WindDirDegrees,DateUTC
12:15 AM,55.6,54.0,94,30.15,4.0,NE,18.4,-,0.13,Rain-Thunderstorm,Heavy Thunderstorms and Rain,50,2013-09-15 06:15:00
12:35 AM,54.7,53.6,96,30.16,10.0,NNE,9.2,-,0.19,Thunderstorm,Overcast,30,2013-09-15 06:35:00
12:55 AM,55.4,53.8,94,30.16,5.0,NE,9.2,-,0.43,Rain-Thunderstorm,Light Thunderstorms and Rain,50,2013-09-15 06:55:00
1:15 AM,55.0,53.6,95,30.15,7.0,NE,8.1,-,0.06,Rain,Rain,50,2013-09-15 07:15:00
1:35 AM,55.0,53.6,95,30.15,10.0,East,9.2,-,0.06,Thunderstorm,Mostly Cloudy,90,2013-09-15 07:35:00
1:55 AM,55.4,53.6,94,30.15,10.0,East,9.2,-,0.06,Rain-Thunderstorm,Light Thunderstorms and Rain,90,2013-09-15 07:55:00
2:15 AM,54.9,53.6,96,30.16,10.0,East,3.5,-,0.02,,Overcast,90,2013-09-15 08:15:00
2:35 AM,55.0,53.2,94,30.15,10.0,SE,5.8,-,0.02,Thunderstorm,Overcast,140,2013-09-15 08:35:00
2:55 AM,55.0,53.2,94,30.15,10.0,Calm,Calm,-,0.02,,Overcast,0,2013-09-15 08:55:00
3:15 AM,54.7,53.8,97,30.15,10.0,South,3.5,-,N/A,,Mostly Cloudy,190,2013-09-15 09:15:00
3:35 AM,54.5,53.1,95,30.15,10.0,Calm,Calm,-,N/A,,Scattered Clouds,0,2013-09-15 09:35:00
3:55 AM,54.5,53.6,97,30.15,10.0,NW,4.6,-,N/A,,Clear,310,2013-09-15 09:55:00
4:15 AM,54.5,53.1,95,30.15,10.0,NNW,6.9,-,N/A,,Clear,340,2013-09-15 10:15:00
4:35 AM,54.5,53.2,96,30.16,10.0,NNW,9.2,-,N/A,,Scattered Clouds,340,2013-09-15 10:35:00
4:55 AM,54.7,53.1,94,30.16,10.0,NNW,9.2,-,N/A,,Mostly Cloudy,340,2013-09-15 10:55:00
5:15 AM,54.5,52.9,94,30.17,10.0,NNW,9.2,-,N/A,,Mostly Cloudy,340,2013-09-15 11:15:00
5:35 AM,54.7,53.1,94,30.17,10.0,North,6.9,-,N/A,,Overcast,360,2013-09-15 11:35:00
5:50 AM,55.4,53.6,94,30.17,10.0,North,5.8,-,N/A,,Overcast,10,2013-09-15 11:50:00
6:50 AM,53.6,53.6,100,30.18,10.0,Variable,5.8,-,N/A,,Mostly Cloudy,0,2013-09-15 12:50:00
7:50 AM,55.4,53.6,94,30.19,10.0,Calm,Calm,-,N/A,,Scattered Clouds,0,2013-09-15 13:50:00
8:50 AM,60.8,53.6,77,30.20,10.0,Variable,5.8,-,N/A,,Mostly Cloudy,0,2013-09-15 14:50:00
9:50 AM,60.8,53.6,77,30.21,10.0,NE,4.6,-,N/A,,Mostly Cloudy,50,2013-09-15 15:50:00
10:50 AM,62.6,53.6,72,30.22,10.0,Variable,4.6,-,N/A,,Mostly Cloudy,0,2013-09-15 16:50:00
11:50 AM,64.4,53.6,68,30.22,10.0,Calm,Calm,-,N/A,,Mostly Cloudy,0,2013-09-15 17:50:00
12:50 PM,68.0,55.4,64,30.21,10.0,Variable,5.8,-,N/A,,Mostly Cloudy,0,2013-09-15 18:50:00
1:50 PM,69.8,53.6,56,30.20,10.0,South,4.6,-,N/A,,Mostly Cloudy,170,2013-09-15 19:50:00
2:50 PM,71.6,51.8,50,30.18,10.0,SE,6.9,-,N/A,,Mostly Cloudy,130,2013-09-15 20:50:00
3:50 PM,71.6,53.6,53,30.16,10.0,Calm,Calm,-,N/A,,Scattered Clouds,0,2013-09-15 21:50:00
4:50 PM,73.4,50.0,44,30.16,10.0,Calm,Calm,-,N/A,,Scattered Clouds,0,2013-09-15 22:50:00
5:50 PM,73.4,51.8,47,30.16,10.0,South,5.8,-,N/A,,Scattered Clouds,170,2013-09-15 23:50:00
6:50 PM,71.6,53.6,53,30.17,10.0,SE,4.6,-,N/A,,Scattered Clouds,130,2013-09-16 00:50:00
7:50 PM,66.2,55.4,68,30.19,10.0,South,4.6,-,N/A,,Mostly Cloudy,180,2013-09-16 01:50:00
8:50 PM,62.6,55.4,77,30.21,10.0,Calm,Calm,-,N/A,,Clear,0,2013-09-16 02:50:00
9:50 PM,62.6,55.4,77,30.24,10.0,SSW,8.1,-,N/A,,Scattered Clouds,200,2013-09-16 03:50:00
10:15 PM,62.6,55.6,78,30.24,10.0,South,8.1,-,N/A,,Scattered Clouds,190,2013-09-16 04:15:00
10:35 PM,61.7,56.3,82,30.24,10.0,South,5.8,-,N/A,,Clear,170,2013-09-16 04:35:00
10:55 PM,61.7,55.9,81,30.25,10.0,ESE,6.9,-,N/A,Thunderstorm,Thunderstorm,110,2013-09-16 04:55:00
11:15 PM,61.5,53.6,75,30.25,10.0,East,6.9,-,N/A,,Clear,100,2013-09-16 05:15:00
11:35 PM,60.8,53.2,76,30.25,10.0,East,6.9,-,N/A,,Clear,100,2013-09-16 05:35:00
11:55 PM,60.8,53.4,77,30.25,10.0,ESE,6.9,-,N/A,,Clear,120,2013-09-16 05:55:00